Weather History for KAST - December, 2013

Change the Weather History Date:

Tuesday, December 10, 2013

  Actual Average Record
Temperature  
Mean Temperature 31 °F 43 °F  
Max Temperature 36 °F 49 °F 63 °F (1995)
Min Temperature 26 °F 37 °F 15 °F (1972)
Degree Days  
Heating Degree Days 34 22  
Month to date heating degree days 333 217  
Since 1 July heating degree days 1686 1630  
Cooling Degree Days 0 0  
Month to date cooling degree days 0 0  
Year to date cooling degree days 9 12  
Moisture  
Dew Point 32 °F    
Average Humidity 95    
Maximum Humidity 100    
Minimum Humidity 89    
Precipitation  
Precipitation 0.06 in 0.32 in 2.13 in (1896)
Month to date precipitation 1.93 3.41  
Year to date precipitation 56.14 60.78  
Snow  
Snow 0.00 in - - ()
Month to date snowfall 0.0  
Snow Depth 0.00 in    
Sea Level Pressure  
Sea Level Pressure 30.45 in    
Wind  
Wind Speed 4 mph (East)    
Max Wind Speed 8 mph    
Max Gust Speed 10 mph    
Visibility 3 miles    
Events Rain    
T = Trace of Precipitation, MM = Missing Value Source: NWS Daily Summary

Daily Weather History Graph

Daily Weather History Graph

Search for Another Location

Airport or City:

Trip Planner

Search our weather history database for the weather conditions in past years. The results will help you decide how hot, cold, wet, or windy it might be!

Date:

Astronomy

Dec. 10, 2013 Rise Set
Actual Time 7:47 AM PST 4:29 PM PST
Civil Twilight 7:12 AM PST 5:04 PM PST
Nautical Twilight 6:34 AM PST 5:42 PM PST
Astronomical Twilight 5:58 AM PST 6:18 PM PST
Moon 12:51 PM PST (12/10) 12:52 AM PST (12/10)
Length of Visible Light 9h 51m
Length of Day
8h 42m
Waxing Gibbous, 63% of the Moon is Illuminated
Dec 10
Waxing Gibbous
Dec 17
Full
Dec 25
Last Quarter
Jan 1
New
Jan 7
First Quarter

Hourly Weather History & Observations

Time (PST) Temp. Windchill Dew Point Humidity Pressure Visibility Wind Dir Wind Speed Gust Speed Precip Events Conditions
12:35 AM 27.0 °F 21.6 °F 27.0 °F 100% 30.51 in 6.0 mi ESE 4.6 mph - N/A   Overcast
12:50 AM 28.4 °F 24.6 °F 28.4 °F 100% 30.51 in 5.0 mi East 3.5 mph - N/A   Overcast
12:55 AM 28.0 °F 22.8 °F 28.0 °F 100% 30.51 in 5.0 mi ESE 4.6 mph - N/A   Overcast
1:07 AM 28.0 °F 24.2 °F 28.0 °F 100% 30.51 in 5.0 mi ESE 3.5 mph - N/A   Overcast
1:15 AM 28.9 °F 25.2 °F 28.9 °F 100% 30.51 in 5.0 mi East 3.5 mph - N/A   Overcast
1:24 AM 28.9 °F 25.2 °F 28.9 °F 100% 30.51 in 5.0 mi ESE 3.5 mph - N/A   Overcast
1:34 AM 30.0 °F 26.5 °F 28.9 °F 96% 30.51 in 5.0 mi East 3.5 mph - N/A   Overcast
1:55 AM 30.9 °F - 28.9 °F 92% 30.51 in 5.0 mi Calm Calm - N/A   Overcast
2:55 AM 30.9 °F 27.5 °F 28.9 °F 92% 30.51 in 5.0 mi ESE 3.5 mph - N/A   Overcast
3:15 AM 30.9 °F 25.2 °F 28.9 °F 92% 30.50 in 5.0 mi ESE 5.8 mph - N/A   Overcast
3:55 AM 30.9 °F - 28.9 °F 92% 30.50 in 5.0 mi Calm Calm - N/A   Overcast
4:08 AM 30.9 °F - 30.0 °F 96% 30.49 in 5.0 mi Calm Calm - N/A   Overcast
4:55 AM 30.9 °F 25.2 °F 30.0 °F 96% 30.48 in 5.0 mi ESE 5.8 mph - N/A   Overcast
5:20 AM 32.0 °F 28.7 °F 30.0 °F 92% 30.48 in 5.0 mi East 3.5 mph - N/A   Overcast
5:55 AM 32.0 °F 28.7 °F 30.0 °F 92% 30.47 in 5.0 mi East 3.5 mph - N/A   Overcast
6:33 AM 32.0 °F 28.7 °F 30.0 °F 92% 30.47 in 5.0 mi ESE 3.5 mph - N/A   Overcast
6:55 AM 32.0 °F - 30.0 °F 92% 30.47 in 5.0 mi Calm Calm - N/A   Overcast
7:55 AM 32.0 °F 28.7 °F 30.0 °F 92% 30.46 in 5.0 mi ESE 3.5 mph - N/A   Overcast
8:04 AM 32.0 °F 28.7 °F 30.0 °F 92% 30.46 in 5.0 mi East 3.5 mph - N/A   Overcast
8:42 AM 32.0 °F 28.7 °F 30.0 °F 92% 30.46 in 4.0 mi East 3.5 mph - N/A   Overcast
8:55 AM 32.0 °F - 30.9 °F 96% 30.46 in 4.0 mi Calm Calm - N/A   Overcast
9:06 AM 33.1 °F 28.7 °F 30.0 °F 89% 30.46 in 4.0 mi East 4.6 mph - N/A   Overcast
9:55 AM 34.0 °F 31.0 °F 30.9 °F 89% 30.47 in 4.0 mi East 3.5 mph - N/A   Overcast
10:20 AM 34.0 °F 29.8 °F 32.0 °F 92% 30.47 in 2.5 mi East 4.6 mph - N/A   Overcast
10:43 AM 34.0 °F - 32.0 °F 92% 30.47 in 1.8 mi Calm Calm - N/A   Overcast
10:55 AM 34.0 °F 31.0 °F 32.0 °F 92% 30.47 in 1.5 mi East 3.5 mph - N/A   Overcast
11:22 AM 34.0 °F 31.0 °F 33.1 °F 96% 30.46 in 1.2 mi ESE 3.5 mph - N/A   Overcast
11:55 AM 34.0 °F 29.8 °F 33.1 °F 96% 30.45 in 1.2 mi East 4.6 mph - N/A   Overcast
12:37 PM 35.1 °F 32.2 °F 33.1 °F 92% 30.44 in 1.0 mi East 3.5 mph - N/A   Overcast
12:46 PM 35.1 °F 32.2 °F 33.1 °F 92% 30.44 in 0.8 mi East 3.5 mph - N/A   Overcast
12:49 PM 35.6 °F 31.7 °F 33.8 °F 93% 30.44 in 1.0 mi East 4.6 mph - N/A   Overcast
12:55 PM 35.1 °F 31.0 °F 33.1 °F 92% 30.44 in 1.0 mi East 4.6 mph - N/A   Overcast
1:19 PM 35.1 °F 32.2 °F 34.0 °F 96% 30.44 in 0.8 mi East 3.5 mph - N/A   Overcast
1:29 PM 35.1 °F 30.1 °F 33.1 °F 92% 30.44 in 1.0 mi East 5.8 mph - N/A   Overcast
1:55 PM 35.1 °F - 34.0 °F 96% 30.43 in 1.2 mi Calm Calm - N/A   Overcast
2:09 PM 35.1 °F 31.0 °F 33.1 °F 92% 30.43 in 1.5 mi ENE 4.6 mph - N/A   Overcast
2:25 PM 35.1 °F - 34.0 °F 96% 30.43 in 1.2 mi Calm Calm - N/A   Overcast
2:55 PM 35.1 °F 32.2 °F 33.1 °F 92% 30.43 in 0.8 mi East 3.5 mph - N/A   Overcast
3:55 PM 35.1 °F 31.0 °F 33.1 °F 92% 30.42 in 0.8 mi East 4.6 mph - 0.02 in Rain Light Rain
4:31 PM 35.1 °F 31.0 °F 34.0 °F 96% 30.42 in 1.5 mi East 4.6 mph - 0.02 in   Overcast
4:55 PM 35.1 °F 30.1 °F 34.0 °F 96% 30.41 in 1.5 mi East 5.8 mph - 0.03 in Rain Light Rain
5:06 PM 35.1 °F 32.2 °F 34.0 °F 96% 30.41 in 2.0 mi East 3.5 mph - 0.00 in Rain Light Rain
5:11 PM 35.1 °F 30.1 °F 34.0 °F 96% 30.41 in 1.8 mi ESE 5.8 mph - 0.00 in Rain Light Rain
5:37 PM 35.1 °F 30.1 °F 34.0 °F 96% 30.40 in 2.0 mi East 5.8 mph - 0.00 in   Overcast
5:55 PM 35.1 °F 32.2 °F 34.0 °F 96% 30.40 in 2.5 mi East 3.5 mph - 0.01 in   Overcast
6:09 PM 35.1 °F 32.2 °F 34.0 °F 96% 30.41 in 3.0 mi NE 3.5 mph - N/A   Overcast
6:25 PM 35.1 °F - 34.0 °F 96% 30.40 in 2.5 mi Calm Calm - N/A   Overcast
6:38 PM 35.1 °F 32.2 °F 34.0 °F 96% 30.40 in 1.8 mi ESE 3.5 mph - N/A   Overcast
6:45 PM 35.1 °F 32.2 °F 34.0 °F 96% 30.40 in 1.5 mi SE 3.5 mph - N/A   Overcast
6:55 PM 35.1 °F 31.0 °F 34.0 °F 96% 30.40 in 1.5 mi ESE 4.6 mph - N/A   Overcast
7:23 PM 35.1 °F 31.0 °F 34.0 °F 96% 30.40 in 2.0 mi East 4.6 mph - N/A   Overcast
7:55 PM 35.1 °F 32.2 °F 34.0 °F 96% 30.41 in 3.0 mi East 3.5 mph - N/A   Overcast
8:31 PM 35.1 °F 31.0 °F 34.0 °F 96% 30.41 in 3.0 mi East 4.6 mph - N/A   Overcast
8:55 PM 35.1 °F 30.1 °F 34.0 °F 96% 30.41 in 4.0 mi East 5.8 mph - N/A   Overcast
9:02 PM 35.1 °F 31.0 °F 34.0 °F 96% 30.41 in 4.0 mi East 4.6 mph - N/A   Overcast
9:55 PM 35.1 °F 31.0 °F 34.0 °F 96% 30.40 in 4.0 mi East 4.6 mph - N/A   Overcast
10:47 PM 35.1 °F 32.2 °F 34.0 °F 96% 30.39 in 4.0 mi East 3.5 mph - N/A   Overcast
10:55 PM 35.1 °F 31.0 °F 34.0 °F 96% 30.40 in 4.0 mi East 4.6 mph - N/A   Overcast
11:55 PM 35.1 °F 30.1 °F 34.0 °F 96% 30.38 in 5.0 mi East 5.8 mph - N/A   Overcast